Location: Casper
(42.8670°N, 106.3130°W)
Time: 16:48:53
(UTC-06:00)

Daily predictions for brighter satellites

Satellite Brightness Start Highest point End
(mag) Time Altitude Azimuth Time Altitude Azimuth Time Altitude Azimuth
Meteor 2-3 Rocket 3.8 20:56:22 10° S 21:02:00 61° E 21:07:35 10° NNE
Meteor 1-26 Rocket 4.3 20:57:37 10° N 21:03:18 83° E 21:09:03 10° SSE
Cosmos 1825 3.8 21:04:17 10° SE 21:06:55 18° E 21:09:32 10° NE
ERS-1 Rocket 3.8 21:04:30 10° SE 21:09:03 36° ENE 21:13:39 10° N
Cosmos 1869 Rocket 4.2 21:06:40 10° SSE 21:10:38 37° E 21:14:40 10° NNE
Helios 1B rocket 2.6 21:09:19 10° NNE 21:13:21 51° E 21:17:19 10° S
Cosmos 2084 3.3 21:10:05 10° NNW 21:13:53 64° NE 21:17:48 10° SE
NOSS 3-2 (A) 4.1 21:11:55 10° SW 21:17:52 63° NW 21:24:31 10° NNE
Lacrosse 4 Rocket 2.9 21:18:14 10° N 21:22:04 27° NE 21:25:48 10° ESE
USA 186 3.9 21:20:01 10° SSW 21:22:12 22° W 21:24:32 10° NW
Cosmos 1892 3.1 21:20:11 10° SSW 21:24:00 67° W 21:27:50 10° N
ISS -3.9 21:21:04 10° SW 21:24:18 75° SE 21:27:33 10° ENE
Cosmos 2221 Rocket 3.8 21:21:29 10° N 21:25:50 53° E 21:30:12 10° SSE
DELTA 2 R/B(2) 4.0 21:26:14 10° SW 21:27:50 26° S 21:28:27 19° SE
USA 215 3.6 21:22:42 10° ESE 21:29:08 62° NE 21:35:36 10° NW
Tiangong 2 2.5 21:30:52 10° W 21:33:39 27° SSW 21:35:46 14° SSE
Cosmos 1943 Rocket 2.5 21:29:22 10° S 21:34:38 44° ESE 21:39:52 10° NE
Terra 3.9 21:33:46 10° E 21:36:05 14° ENE 21:38:24 10° NNE
NOSS 3-2 (C) 4.2 21:32:42 10° SW 21:38:40 60° NW 21:45:18 10° NNE
Cosmos 1340 3.4 21:37:39 10° N 21:41:12 36° ENE 21:43:36 17° SE
Envisat 4.3 21:37:02 10° SSW 21:41:45 38° W 21:46:29 10° NNW
Cosmos 468 4.5 21:36:41 10° NNW 21:41:59 79° ENE 21:46:37 13° SSE
Cosmos 2344 4.0 21:35:05 10° S 21:42:08 41° ESE 21:49:43 10° NE
Cosmos 1634 Rocket 4.2 21:37:02 10° N 21:43:21 79° W 21:49:40 10° S
Cosmos 2263 4.2 21:38:46 10° SSW 21:44:29 67° ESE 21:50:11 10° NNE
CZ-4B DEB 3.1 21:41:49 10° S 21:44:41 56° WSW 21:47:35 10° NNW
SPOT 1/Viking Rocket 4.4 21:41:31 15° SE 21:45:12 34° ENE 21:49:53 10° N
Cosmos 372 Rocket 4.1 21:41:08 10° S 21:46:04 51° ESE 21:51:01 10° NNE
NOAA 11 4.2 21:40:47 10° SSE 21:46:15 79° ENE 21:51:46 10° N
Helios 1A 3.9 21:43:40 10° S 21:47:42 47° W 21:51:47 10° NNW
Cosmos 1269 Rocket 4.2 21:46:14 10° NNW 21:51:30 62° ENE 21:55:22 18° SE
SPOT 5 3.4 21:47:25 16° SE 21:51:33 51° ENE 21:56:40 10° N
Molniya-1 3.5 21:50:41 10° SW 21:52:18 40° NW 21:53:48 10° NNE
CENTAUR R/B 2.4 21:46:43 10° SSW 21:52:38 68° ESE 21:59:25 10° NE
COSMOS 2455 3.2 21:48:08 10° SW 21:54:06 70° WNW 22:00:08 10° NNE
SAR-Lupe-4 4.1 21:51:25 11° S 21:54:50 57° W 21:58:23 10° NNW
H-2A R/B 4.3 21:54:41 10° ENE 21:55:43 11° ENE 21:56:46 10° NE
Resurs 01 Rocket 4.4 21:53:42 10° WSW 21:55:57 14° W 21:58:12 10° WNW
Cosmos 1606 2.6 21:52:15 10° N 21:56:03 85° E 21:58:53 17° S
Cosmos 2369 Rocket 2.5 21:50:49 10° SSW 21:56:28 72° WNW 22:02:11 10° NNE
Shenzhou-11 Module 4.2 21:54:39 10° WSW 21:56:29 15° SSW 21:57:31 13° S
Cosmos 1125 Rocket 3.4 21:51:40 10° SSW 21:56:54 77° ESE 22:02:08 10° NNE
Milstar 3 4.2 21:49:53 10° SW 21:59:11 28° S 22:03:20 19° SE
Lacrosse 5 rocket 1.4 21:56:35 10° SW 22:00:08 66° NW 22:03:48 10° NE
Cosmos 1833 4.4 21:56:27 10° NNW 22:02:12 60° ENE 22:05:59 21° SE
YAOGAN 6 4.4 21:59:32 10° SSW 22:02:51 30° W 22:06:09 10° NNW
Okean 1-7 4.1 22:11:22 10° NNW 22:15:33 44° W 22:19:40 10° SSW
GPS 2-04 Rocket1 3.9 22:13:30 10° WSW 22:16:24 22° S 22:16:29 22° S
Cosmos 2279 Rocket 4.2 22:10:50 10° NNW 22:17:05 74° W 22:22:39 13° S
ATLAS 5 CENTAUR R/B 2.4 22:12:37 10° NW 22:18:39 87° SW 22:22:41 25° SSE
Cosmos 1867 4.3 22:14:30 10° NNW 22:19:42 43° NE 22:22:44 23° ESE
MetOp-B 4.5 22:17:02 15° S 22:21:25 63° W 22:26:45 10° NNW
Meteor 1-27 Rocket 3.7 22:16:15 10° N 22:22:03 86° E 22:25:44 23° SSE
H-2A R/B 2.1 22:22:48 25° SSE 22:26:04 80° ENE 22:31:25 10° N
Cosmos 494 Rocket 4.5 22:22:07 10° N 22:27:10 47° ENE 22:29:25 29° ESE
Cosmos 158 Rocket 4.4 22:24:49 10° NNW 22:29:34 51° WSW 22:32:34 21° S
Cosmos 1408 4.1 22:27:38 10° SW 22:31:05 35° WNW 22:34:34 10° N
ARGOS 3.5 22:29:08 19° S 22:33:00 60° W 22:38:19 10° NNW
Cosmos 1656 Rocket 3.6 22:29:16 19° S 22:33:05 59° ESE 22:38:30 10° NNE
Cosmos 1733 Rocket 3.0 22:38:50 26° SSW 22:41:14 80° W 22:45:35 10° N
Cosmos 1825 4.1 22:38:57 10° SW 22:42:16 29° WNW 22:45:37 10° NNW
SL-08 RB Rocket 4.5 22:45:10 23° SSW 22:47:46 48° W 22:52:18 10° NNW
Intercosmos 25 Rocket 4.3 22:41:42 10° N 22:49:14 81° W 22:51:30 33° S
Sich 1 Rocket 3.8 22:49:49 46° ESE 22:50:28 50° E 22:54:46 10° NNE
Cosmos 1346 4.0 22:47:55 10° N 22:49:46 36° NNE 22:49:46 36° NNE
Nimbus 7 Rocket 4.5 22:48:45 10° NNE 22:54:39 78° WNW 22:59:17 17° SSW
Landsat 7 3.9 22:56:22 40° S 22:58:02 75° WSW 23:02:49 10° NNW
Lacrosse 4 Rocket 2.6 22:56:45 10° NW 23:00:52 36° WSW 23:02:08 30° SSW
ISS -1.4 22:58:18 10° WNW 23:01:03 24° NNW 23:03:48 10° NE
Cosmos 2227 Rocket 3.6 22:59:29 10° N 23:04:16 27° NE 23:06:32 21° E
Cosmos 1975 Rocket 3.6 23:00:35 10° N 23:04:51 42° ENE 23:05:13 41° E
CZ-2C R/B 4.4 23:02:04 10° NE 23:04:29 15° E 23:04:29 15° E
Meteor 1-14 Rocket 4.3 23:04:53 41° SSE 23:06:50 65° E 23:12:36 10° NNE
Meteor 2-20 4.5 23:04:28 26° SSW 23:08:07 78° W 23:14:15 10° N
Cosmos 1812 3.1 23:04:49 10° N 23:08:29 51° ENE 23:08:29 51° ENE
Meteor 2-20 Rocket 4.4 23:06:18 34° S 23:09:09 85° E 23:15:18 10° N
Cosmos 2219 3.2 23:04:47 10° NNW 23:10:34 78° ENE 23:12:18 47° SE
ATLAS CENTAUR R/B 2.0 23:12:21 40° ENE 23:12:21 40° ENE 23:15:02 10° NE
USA 215 3.9 23:09:49 31° S 23:12:17 42° SW 23:18:28 10° WNW
Terra 1.8 23:12:01 51° S 23:13:11 76° WSW 23:17:58 10° NNW
CARTOSAT-1 3.7 23:13:27 56° SSW 23:14:12 69° W 23:18:32 10° NNW
Cosmos 2026 Rocket 3.9 23:12:38 43° SSE 23:14:40 68° E 23:20:53 10° NNE
SL-19 R/B 4.4 23:09:03 10° NNE 23:15:06 71° ESE 23:17:23 41° S
Cosmos 1437 3.7 23:13:19 10° NNW 23:16:04 43° WNW 23:16:04 43° WNW
DMSP B5D2-2 4.4 23:11:22 10° N 23:16:31 62° WNW 23:19:27 26° SW
Cosmos 1674 Rocket 4.5 23:13:26 10° NNW 23:17:30 40° W 23:18:42 33° SW
Cosmos 1378 Rocket 3.6 23:14:01 10° NNW 23:18:28 75° W 23:19:06 62° SSW
Cosmos 1943 Rocket 4.0 23:13:41 10° WSW 23:18:31 29° NW 23:23:20 10° N
Cosmos 2251 Rocket 3.5 23:14:58 10° NNW 23:20:13 73° WSW 23:21:25 52° S
Gbstr 26 Del rocket 4.0 23:21:22 10° NW 23:25:29 38° NNE 23:26:38 30° ENE
CZ-4C R/B 4.0 23:25:55 47° ENE 23:25:55 47° ENE 23:29:54 10° N
ARGOS Delta rocket 3.8 23:21:37 10° NNE 23:25:48 54° E 23:25:48 54° E
Cosmos 405 Rocket 3.0 23:25:57 10° N 23:29:06 60° NNE 23:29:06 60° NNE
Okean 1 3.9 23:27:11 10° N 23:30:35 47° NE 23:30:35 47° NE
Meteor 2-11 Rocket 4.5 23:25:00 10° N 23:31:07 67° E 23:32:34 51° SE
H-2A R/B 1.9 23:31:06 73° WSW 23:31:08 73° WSW 23:35:15 10° NNW
S3M 4.1 23:30:16 10° N 23:36:19 60° E 23:37:38 49° SE
GEOS 3 Rocket 3.8 23:35:54 50° SSW 23:36:37 55° WSW 23:41:46 10° NW
Meteor 1-18 Rocket 4.2 23:34:12 10° NNW 23:39:57 85° W 23:41:12 57° S
Okean 3 4.5 23:36:07 10° NNW 23:39:57 36° W 23:40:23 35° WSW
Lacrosse 5 rocket 4.3 23:37:47 10° WNW 23:39:59 15° NNW 23:42:14 10° NNE
CENTAUR R/B 4.4 23:38:25 10° W 23:43:56 30° NW 23:50:08 10° NNE
Mayak 1.3 23:45:59 10° ENE 23:46:31 11° ENE 23:46:31 11° ENE
Spot 4 3.9 23:48:22 65° SW 23:48:44 68° WSW 23:53:34 10° NNW
CZ-4 R/B 3.9 23:45:46 10° N 23:50:23 66° WNW 23:50:59 59° WSW
Cosmos 1441 Rocket 3.9 23:51:39 10° NNW 23:54:41 53° NNW 23:54:41 53° NNW
